Home   Weather   Lörrach   Past weeks

Flag for Germany Past Weather in Lörrach, Baden-Württemberg, Germany — Yesterday and Last 2 Weeks

Now
70 °F

Passing clouds.


Feels Like: 70 °F
Forecast: 47 / 73 °F
Wind: 3 mph from North

Location: Bale-Mulhouse

Current Time: Sep 27, 2016 at 3:59:28 PM

Latest Report: Sep 27, 2016 at 3:30 PM


Visibility: N/A

Pressure: 30.30 "Hg

Humidity: 60%

Dew Point: 55 °F

Location of LörrachLocation

Past Weather in Lörrach — Graph

°F

Lörrach Temperature Yesterday

Maximum temperature yesterday: 68 °F (at 4:00 PM)
Minimum temperature yesterday: 54 °F (at 4:00 AM)
Average temperature yesterday: 61 °F

High & Low Weather Summary for the Past Weeks

 TemperatureHumidityPressure
High88 °F (Sep 12, 3:00 PM)100% (Sep 15, 4:00 AM)30.33 "Hg (Sep 15, 4:00 AM)
Low41 °F (Sep 24, 7:30 AM)35% (Sep 13, 4:00 PM)29.77 "Hg (Sep 15, 3:00 AM)
Average61 °F80%30.07 "Hg
* Reported Sep 12 2:00 PM — Sep 27 2:30 PM, Lörrach, Weather by CustomWeather, © 2016

Note: Actual official high and low records may vary slightly from our data, if they occured in-between our weather recording intervals... More about our weather records

Advertising

Lörrach Weather History for the Previous 24 Hours

Scroll right to see more
 ConditionsComfort  
Time TempWeatherWind HumidityBarometerVisibility
2:30 PM
Tue, Sep 27
66 °FScattered clouds.5 mph73%30.30 "HgN/A
2:00 PM68 °FBroken clouds.5 mph69%30.30 "HgN/A
1:30 PM66 °FBroken clouds.5 mph73%30.30 "HgN/A
1:00 PM66 °FPartly sunny.5 mph73%30.30 "HgN/A
12:30 PM64 °FPartly sunny.3 mph78%30.30 "HgN/A
12:00 PM63 °FMostly cloudy.3 mph83%30.30 "HgN/A
11:30 AM63 °FMostly cloudy.5 mph83%30.30 "HgN/A
11:00 AM61 °FBroken clouds.5 mph83%30.30 "HgN/A
10:30 AM61 °FMostly cloudy.6 mph88%30.30 "Hg6 mi
10:00 AM59 °FMore clouds than sun.7 mph88%30.30 "Hg6 mi
9:30 AM59 °FOvercast.3 mph94%30.27 "Hg6 mi
9:00 AM59 °FPartly sunny.2 mph94%30.27 "Hg6 mi
8:30 AM57 °FPartly sunny.2 mph94%30.27 "Hg6 mi
8:00 AM57 °FPartly sunny.No wind94%30.24 "HgN/A
7:30 AM57 °FPartly sunny.No wind94%30.24 "HgN/A
7:00 AM57 °FOvercast.2 mph94%30.24 "HgN/A
6:30 AM57 °FOvercast.1 mph94%30.24 "HgN/A
6:00 AM57 °FOvercast.1 mph94%30.21 "HgN/A
5:30 AM57 °FOvercast.No wind94%30.21 "HgN/A
5:00 AM57 °FMostly cloudy.1 mph94%30.21 "Hg5 mi
4:30 AM57 °FMostly cloudy.1 mph88%30.21 "Hg5 mi
4:00 AM57 °FPassing clouds.2 mph94%30.21 "HgN/A
3:30 AM57 °FPassing clouds.3 mph94%30.21 "HgN/A
3:00 AM57 °FPassing clouds.5 mph94%30.21 "HgN/A
2:30 AM59 °FMostly cloudy.3 mph88%30.21 "HgN/A
2:00 AM59 °FOvercast.5 mph88%30.21 "HgN/A
1:30 AM59 °FMostly cloudy.1 mph88%30.18 "HgN/A
1:00 AM59 °FOvercast.5 mph88%30.18 "HgN/A
12:30 AM59 °FMostly cloudy.3 mph88%30.18 "HgN/A
12:00 AM61 °FPassing clouds.6 mph83%30.21 "HgN/A
11:30 PM
Mon, Sep 26
61 °FPassing clouds.5 mph83%30.21 "HgN/A
11:00 PM61 °FPassing clouds.8 mph83%30.21 "HgN/A
10:30 PM61 °FPassing clouds.8 mph83%30.21 "HgN/A
10:00 PM61 °FPassing clouds.6 mph83%30.18 "HgN/A
9:30 PM61 °FPartly cloudy.8 mph83%30.18 "HgN/A
9:00 PM61 °FPassing clouds.6 mph83%30.18 "HgN/A
8:30 PM61 °FPartly cloudy.5 mph83%30.18 "HgN/A
8:00 PM63 °FClear.5 mph77%30.18 "Hg10 mi
7:30 PM63 °FPassing clouds.6 mph77%30.15 "HgN/A
7:00 PM63 °FBroken clouds.5 mph83%30.15 "HgN/A
6:30 PM64 °FPartly sunny.6 mph73%30.15 "HgN/A
6:00 PM68 °FPartly sunny.5 mph69%30.15 "HgN/A
5:30 PM68 °FScattered clouds.5 mph69%30.15 "HgN/A
4:30 PM66 °FScattered clouds.3 mph73%30.15 "HgN/A
4:00 PM68 °FBroken clouds.6 mph69%30.15 "HgN/A
3:30 PM66 °FBroken clouds.7 mph73%30.15 "HgN/A
3:00 PM66 °FPartly sunny.5 mph73%30.15 "HgN/A
Weather by CustomWeather, © 2016

See weather overviewHow to use our weather pages